EW6758 Weather Reports


time (UTC)temp
C
wind
direction
speed
KPH
gust
KPH
rain 1hr
cm
rain 24hr
cm
rain mn
cm
humidity
%
barometer
mb
20260510054702 19 280 0.0 0.0 0.00 3.10 0.00 99 1012.2
20260510052703 19 281 0.0 0.0 0.00 3.10 0.00 99 1012.5
20260510050603 19 258 0.0 0.0 0.00 3.10 0.00 99 1012.5
20260510044703 19 266 0.0 0.0 0.00 3.33 3.10 99 1012.5
20260510042703 19 253 0.0 0.0 0.00 3.33 3.10 99 1012.5
20260510040603 19 243 0.0 0.0 0.00 3.33 3.10 99 1012.9
20260510034702 18 227 0.0 0.0 0.00 3.33 3.10 99 1012.9
20260510032733 18 284 0.0 0.0 0.00 3.33 3.10 99 1012.9
20260510030633 18 282 0.0 0.0 0.00 3.33 3.10 99 1012.5
20260510024733 18 255 0.0 0.0 0.00 3.33 3.10 99 1012.2
20260510022002 18 274 0.0 0.0 0.00 3.33 3.10 99 1012.2
20260510020003 19 264 0.0 0.0 0.00 3.33 3.10 99 1011.9
20260510014003 19 286 0.0 0.0 0.00 3.33 3.10 99 1011.9
20260510012003 20 302 0.0 0.0 0.00 3.33 3.10 99 1011.5
20260510010002 20 293 0.0 0.0 0.00 3.33 3.10 99 1011.2
20260510004003 20 342 0.0 0.0 0.00 3.33 3.10 99 1010.8
20260510002002 20 232 0.0 0.0 0.00 3.33 3.10 99 1010.8
20260510000002 20 270 0.0 0.0 0.00 3.33 3.10 99 1010.8
20260509234003 20 328 0.0 0.0 0.00 3.33 3.10 99 1010.8
20260509232003 21 277 0.0 0.0 0.00 3.33 3.10 99 1010.8
20260509230032 21 233 0.0 0.0 0.00 3.33 3.10 99 1010.8
20260509224002 21 292 0.0 0.0 0.00 3.33 3.10 99 1010.8
20260509222003 21 335 0.0 0.0 0.00 3.33 3.10 99 1010.5
20260509220003 20 269 0.0 0.0 0.00 3.33 3.10 99 1010.5
20260509214033 20 316 0.0 0.0 0.00 3.33 3.10 99 1010.2
20260509212002 20 268 0.0 0.0 0.00 3.33 3.10 99 1010.8
20260509210002 20 272 0.0 0.0 0.00 3.33 3.10 99 1010.5
20260509204003 20 286 1.6 4.8 0.00 3.33 3.10 99 1010.8
20260509202003 20 318 0.0 0.0 0.18 3.30 3.10 99 1010.8
20260509200033 20 336 1.6 4.8 0.00 3.30 3.07 99 1010.8
20260509194003 20 318 0.0 0.0 0.00 3.30 3.07 99 1011.2
20260509192003 21 54 0.0 0.0 0.00 3.30 3.07 99 1011.2
20260509190003 21 311 0.0 0.0 0.00 3.30 3.07 99 1010.8
20260509184033 21 6 0.0 0.0 0.00 3.30 3.07 99 1010.8
20260509182003 21 334 0.0 0.0 0.00 3.30 3.07 99 1010.8
20260509180033 21 324 0.0 0.0 0.00 3.30 3.07 99 1011.2
20260509173402 21 317 0.0 0.0 0.00 3.30 3.07 99 1011.2
20260509171303 21 276 0.0 0.0 0.00 3.30 3.07 99 1011.5
20260509165306 21 213 0.0 0.0 0.00 3.30 3.07 99 1011.9
20260509163433 21 189 0.0 0.0 0.00 3.30 3.07 99 1011.9
20260509161303 20 302 0.0 0.0 0.00 3.30 3.07 99 1011.9
20260509155305 20 311 0.0 0.0 0.00 3.30 3.07 99 1011.5
20260509153403 20 183 0.0 0.0 0.00 3.30 3.07 99 1011.5
20260509151302 19 185 0.0 0.0 0.00 3.30 3.07 99 1011.2
20260509145306 19 309 0.0 0.0 0.00 3.30 3.07 99 1011.2
20260509143403 18 272 0.0 0.0 0.00 3.30 3.07 99 1011.5
20260509141303 18 256 0.0 0.0 0.00 3.30 3.07 99 1011.5
20260509135305 18 304 0.0 0.0 0.53 3.20 3.07 99 1011.5
20260509132703 18 249 0.0 0.0 0.00 3.20 2.97 99 1011.5
20260509130602 17 240 0.0 0.0 0.00 3.20 2.97 99 1011.5
20260509124703 17 235 0.0 0.0 0.00 3.20 2.97 99 1011.5
20260509122702 17 213 0.0 0.0 0.89 3.15 2.97 99 1011.2
20260509120602 17 294 0.0 0.0 0.36 2.97 2.79 99 1011.2
20260509114702 17 294 0.0 0.0 0.00 2.97 2.74 99 1011.2
20260509112703 17 306 0.0 0.0 0.00 2.92 2.69 99 1010.8
20260509110602 17 238 0.0 0.0 0.00 2.92 2.69 99 1010.2
20260509104703 17 270 0.0 0.0 0.00 2.92 2.69 99 1010.2
20260509102733 17 271 0.0 0.0 0.00 2.92 2.69 99 1010.2
20260509100602 17 244 0.0 0.0 0.00 2.92 2.69 99 1010.5
20260509094703 17 206 0.0 0.0 0.36 2.74 2.59 99 1010.8
20260509092703 17 221 0.0 0.0 0.18 2.74 2.51 99 1010.5
20260509090603 17 248 0.0 0.0 0.71 1.57 2.46 99 1011.2
20260509083403 18 311 9.7 32.2 3.96 0.23 0.66 99 1012.9
20260509081333 19 241 3.2 4.8 0.00 0.23 0.00 99 1010.2
20260509075333 19 267 0.0 0.0 0.00 0.23 0.00 98 1009.8
20260509073403 19 282 0.0 0.0 0.00 0.23 0.00 98 1009.8
20260509071303 19 254 0.0 0.0 0.00 0.23 0.00 98 1010.2
20260509065306 19 245 0.0 0.0 0.00 0.23 0.00 98 1010.5
20260509062703 19 240 0.0 0.0 0.00 0.23 0.00 98 1010.8
20260509060603 19 272 0.0 0.0 0.00 0.23 0.00 98 1011.2